Location: Hysolar-Haus
(48.7436°N, 9.0965°E)
Time: 21:04:43
(UTC+00:00)

Courier 1B - All Passes

Search period start: 18 November 2019 00:00
Search period end: 28 November 2019 00:00
Orbit: 963 x 1209 km, 28.3° (Epoch: 17 November)

Date Brightness Start Highest point End Pass type
(mag) Time Alt. Az. Time Alt. Az. Time Alt. Az.
18 Nov - 07:10:40 10° SSW 07:12:38 11° S 07:14:35 10° SSE daylight
19 Nov - 06:17:33 10° S 06:19:15 11° S 06:20:56 10° SSE daylight
19 Nov - 08:10:31 10° SSW 08:11:48 11° S 08:13:04 10° S daylight
20 Nov - 05:25:00 10° S 05:25:51 10° S 05:26:42 10° SSE visible
20 Nov - 07:16:22 10° SSW 07:18:25 11° S 07:20:27 10° SSE daylight
21 Nov - 06:22:36 10° SSW 06:25:02 12° S 06:27:25 10° SSE daylight
22 Nov - 05:29:05 10° SSW 05:31:38 12° S 05:34:07 10° SSE visible
22 Nov - 07:23:40 10° SSW 07:24:11 10° SSW 07:24:41 10° S daylight
23 Nov - 04:35:48 10° SSW 04:38:12 12° S 04:40:33 10° SSE visible
23 Nov - 06:28:41 10° SSW 06:30:48 12° S 06:32:53 10° S daylight
24 Nov - 03:42:50 10° S 03:44:45 11° S 03:46:39 10° SSE visible
24 Nov - 05:34:38 10° SSW 05:37:23 13° S 05:40:07 10° SSE visible
25 Nov - 04:40:51 10° SSW 04:43:57 13° S 04:46:59 10° SSE visible
26 Nov - 03:47:17 10° SSW 03:50:30 13° S 03:53:38 10° SSE visible
26 Nov - 05:41:02 10° SSW 05:43:08 11° SSW 05:45:11 10° S visible
27 Nov - 02:53:56 10° SSW 02:57:01 13° S 03:00:02 10° SSE visible
27 Nov - 04:46:42 10° SSW 04:49:42 13° S 04:52:37 10° SSE visible
